Volver al catálogo

SL-16 DEB

ActivoLEO
NORAD 22455·DEBRIS·🇷🇺 Russia

Lanzado Dec 25, 1992 desde Baikonur Cosmodrome

Loading…

Próximos Pases (próximas 24 horas)

TLE

ActualizadoSource: Space-Track

Época: Sep 14, 2026, 08:55 UTC

1 22455U 92093EU  26257.37215919  .00014765  00000-0  20345-2 0  9999
2 22455  70.8329  90.1922 0050369 146.6988 277.8521 14.77411226729754

Sigue SL-16 DEB en tiempo real con AllMySat

Download on the App Store